SCP
0 0 0 0 0 0 0 0 0 0 0 0 0 0 0 0 0 0 0 0 0 0 0 0 0 0 0 0 0 1 1 1 1 1 1 1 1 1
0 0 0 0 0 0 0 0 0 0 0 0 0 0 0 0 0 0 0 0 0 0 0 0 0 0 0 0 0 0 0 0 0 1 1 1 1 1
0 0 0 0 0 0 0 0 0 0 0 0 0 0 0 0 0 0 0 0 0 0 0 0 0 0 0 0 0 0 0 0 0 0 1 1 1 1
0 0 0 0 0 0 0 0 0 0 0 0 0 0 0 0 0 0 0 0 0 0 0 0 0 0 0 0 0 0 0 0 0 0 0 0 1 1
0 0 0 0 0 0 0 0 0 0 0 0 0 0 0 -0 0 0 0 0 0 0 0 0 0 0 0 0 0 0 0 0 0 0 0 0 0 1
0 0 0 0 0 0 0 0 0 0 0 0 0 0 0 0 -0 -0 -0 0 0 0 0 0 0 0 0 0 0 0 0 0 0 0 0 0 0 0
0 0 0 0 0 0 0 0 0 0 0 0 0 0 0 0 0 -0 -0 -0 -0 -0 0 0 0 0 0 0 0 0 0 0 0 0 0 0 0 0
0 0 0 0 0 0 0 0 0 0 0 0 0 0 0 0 0 0 0 -0 -0 -0 0 0 0 0 0 0 0 0 0 0 0 0 0 0 0 0
0 0 0 0 0 0 0 0 0 0 0 0 0 0 0 0 0 0 0 0 -0 0 0 0 0 0 0 0 0 0 0 0 0 0 0 0 0 0
0 0 0 0 0 0 0 0 0 0 0 0 0 0 0 0 0 0 0 0 0 0 0 0 0 0 0 0 0 0 0 0 0 0 0 0 0 0
0 0 0 0 0 0 0 0 0 0 0 0 0 0 0 0 0 0 0 0 -0 -0 -0 0 0 0 0 0 0 0 0 0 0 0 0 0 0 0
0 0 0 0 0 0 0 0 0 0 0 0 0 0 0 0 0 0 0 0 -0 -0 -0 -0 0 0 0 0 0 0 0 0 0 0 0 0 0 0
0 0 0 0 0 0 0 0 0 -0 -0 -0 -0 -0 0 0 0 0 0 0 -0 -0 -0 -0 -0 0 0 0 0 0 0 0 0 0 0 0 0 0
0 0 0 0 0 0 0 0 0 -0 -0 -0 -0 -0 -0 -0 -0 -0 0 0 -0 -0 -0 -0 -0 -0 -0 -0 0 0 0 0 0 0 0 0 0 0
0 0 0 0 0 0 0 0 0 -0 -0 -0 -0 -0 -0 -0 -0 -0 -0 0 0 0 0 0 0 -0 -0 0 0 0 0 0 0 0 0 0 0 0
0 0 0 0 0 0 0 0 0 0 -0 -0 -0 -0 -0 -0 -0 -0 -0 -0 -0 0 0 0 0 0 0 0 0 0 0 0 0 0 0 0 0 0
0 0 0 0 0 0 0 0 0 0 0 -0 -0 -0 -0 -0 -0 -0 -0 -0 0 -0 0 0 0 0 0 0 0 0 0 0 0 0 0 0 0 0
0 0 0 0 0 0 0 0 0 0 0 0 -0 -0 -0 -0 -0 -0 0 0 0 -0 0 0 0 0 0 0 0 0 0 0 0 0 0 0 0 0
0 0 0 0 0 0 0 0 0 0 0 0 -0 -0 -0 -0 -0 0 0 0 0 0 0 0 0 0 0 0 0 0 0 0 0 0 0 0 0 0
0 0 0 0 0 0 0 0 0 0 0 0 -0 -0 -0 -0 0 0 0 0 0 0 0 0 0 0 0 0 0 0 0 0 0 0 0 0 0 0
0 0 0 0 0 0 0 0 0 0 0 0 0 0 0 0 0 0 0 0 0 0 0 0 0 0 0 0 0 0 0 0 0 0 0 0 0 0
0 0 0 0 0 0 0 0 0 0 0 0 0 0 0 0 0 0 0 0 0 0 0 0 0 0 0 0 0 0 0 0 0 0 0 0 0 0
0 0 0 0 0 0 0 0 0 0 0 0 0 0 0 0 0 0 0 0 0 0 0 0 0 0 0 0 0 0 0 0 0 0 0 0 0 0
Wind_Speed
8 8 8 8 7 7 7 7 9 14 15 12 6 6 6 8 13 12 12 17 21 24 27 28 29 30 30 28 28 27 27 26 25 26 27 28 30 32
8 10 10 8 8 6 6 6 7 10 13 12 10 9 9 10 14 13 14 21 23 25 26 25 26 29 31 31 29 27 27 27 28 29 30 29 29 30
10 11 12 11 8 7 7 7 7 7 11 13 11 10 12 12 12 11 12 13 13 21 25 25 26 27 28 29 29 28 27 28 29 30 31 30 29 30
11 11 11 10 10 9 9 9 8 6 8 14 14 11 12 11 13 14 13 12 12 18 23 25 25 25 25 26 26 27 26 26 27 28 30 29 29 31
9 10 12 12 11 10 11 10 7 7 6 10 14 12 11 9 12 13 13 11 12 13 19 21 22 22 23 23 24 24 24 25 26 27 27 28 29 32
8 10 12 12 13 14 12 9 8 9 8 9 11 11 11 10 9 11 12 9 10 11 16 18 19 21 22 23 22 22 22 23 26 27 28 28 28 31
11 10 11 18 22 18 16 14 13 11 11 11 12 12 12 10 10 10 14 12 10 8 11 11 10 9 9 14 18 21 22 24 25 26 27 28 29 31
15 14 14 14 19 26 28 27 25 19 17 15 15 16 17 15 13 13 13 15 15 5 8 9 6 10 9 8 15 20 21 22 24 25 26 26 25 27
14 14 14 15 21 14 20 26 23 28 29 21 19 19 19 17 17 17 15 17 18 10 11 16 9 12 10 11 20 21 21 21 22 23 21 21 25 27
13 13 14 14 15 21 19 18 16 17 22 18 16 18 18 16 16 18 18 19 17 13 12 15 10 10 8 7 16 19 20 20 18 16 21 27 28 28
12 12 15 14 25 32 23 21 21 17 22 28 30 28 29 29 24 16 14 14 15 12 7 9 8 6 4 4 8 15 14 11 15 22 26 28 27 26
11 11 18 22 29 33 22 19 20 19 19 20 20 20 17 18 23 15 12 13 14 12 6 4 4 3 4 2 3 3 5 14 22 25 26 27 27 15
13 12 11 26 31 34 29 16 22 25 18 17 15 14 12 10 10 10 10 11 13 12 7 5 4 2 3 2 3 4 1 6 10 14 20 25 24 17
13 12 14 28 32 32 24 25 32 26 13 14 14 13 12 11 10 11 12 11 8 9 9 8 5 3 3 2 0 3 3 4 7 8 9 19 19 21
14 23 25 28 28 20 24 30 24 14 13 14 14 13 12 12 12 11 10 7 5 4 6 6 4 2 2 3 3 2 2 3 6 9 7 7 6 10
14 16 21 24 21 22 21 16 12 13 15 14 15 14 13 11 10 9 9 6 3 2 4 7 6 3 2 2 4 3 3 4 5 8 7 5 5 6
19 9 9 11 12 12 12 12 12 13 14 13 14 15 14 12 10 8 6 4 2 1 2 4 6 7 8 5 5 6 6 6 6 6 6 5 4 5
21 12 12 11 13 14 15 15 14 14 14 14 14 14 14 12 10 7 5 3 0 2 2 3 4 3 4 8 10 6 6 5 5 6 5 5 4 3
13 11 12 12 13 14 14 14 15 15 14 14 14 14 13 11 9 7 3 1 2 3 3 3 4 2 2 3 5 7 4 4 5 4 4 4 4 4
10 11 12 13 13 14 14 14 15 15 14 14 14 13 11 9 7 5 2 2 2 2 3 4 5 4 3 2 3 3 6 4 4 4 3 3 4 4
11 12 12 12 13 13 14 14 15 15 15 14 13 12 10 8 5 4 3 4 3 3 3 3 4 5 2 2 4 4 3 4 5 4 5 4 3 3
12 13 13 12 13 13 14 14 14 14 15 13 12 10 8 6 5 5 5 4 4 3 2 2 4 4 3 4 3 3 2 3 3 7 7 5 4 5
13 13 13 13 13 13 13 14 16 14 13 12 10 8 7 6 5 4 4 4 3 2 2 1 2 2 2 2 2 2 3 2 2 3 2 3 2 3
Wind_Direction
316 310 307 303 296 290 287 292 299 305 302 301 295 290 290 291 291 292 287 283 276 269 264 259 255 256 257 257 254 252 249 247 243 240 238 237 233 229
318 312 309 305 302 295 295 295 290 292 295 298 301 303 299 295 291 288 287 285 283 279 274 265 256 251 252 253 253 253 251 249 244 240 239 237 235 227
316 316 314 313 315 315 307 300 294 293 298 301 303 307 304 300 299 292 289 286 284 279 277 272 264 257 252 252 251 251 250 250 249 246 241 235 230 223
320 323 324 325 319 314 306 298 289 292 297 301 302 302 298 298 298 298 295 291 285 283 281 279 274 268 262 257 255 252 250 247 245 246 244 235 224 217
319 325 321 315 308 305 300 292 283 296 283 286 292 296 295 297 299 297 294 292 292 291 290 288 284 279 272 266 261 256 251 245 241 239 241 236 223 213
316 314 312 309 307 305 302 293 297 295 284 281 286 291 292 290 288 295 296 289 290 293 292 288 282 276 273 272 268 262 255 248 243 238 237 233 223 209
316 309 306 311 312 313 314 312 307 300 298 297 295 294 292 293 290 289 290 291 282 278 284 282 277 274 272 271 268 261 256 252 247 241 236 230 216 201
317 314 310 309 311 317 313 309 309 308 308 303 299 295 294 291 289 288 292 293 291 257 265 275 277 279 274 263 262 260 255 251 248 243 234 222 203 184
308 310 313 314 316 304 304 309 309 307 303 296 291 289 289 288 291 293 291 289 286 282 281 279 266 268 266 264 265 260 258 254 248 242 223 187 160 152
303 305 306 307 310 314 313 311 305 303 299 297 288 286 287 289 289 291 290 287 281 273 259 269 266 263 264 261 264 261 259 255 244 212 169 152 147 146
303 306 310 310 314 321 320 313 310 307 308 305 304 302 302 303 301 297 292 292 293 291 274 266 268 262 262 265 265 257 244 208 167 151 145 144 145 145
309 306 312 317 319 323 320 316 314 311 309 309 307 303 298 292 297 295 298 300 299 295 281 266 268 260 272 302 309 273 190 161 152 150 149 150 149 141
316 315 312 319 324 326 325 319 311 313 313 311 307 302 296 292 295 294 294 292 290 285 295 288 270 232 240 314 345 347 83 137 140 146 150 150 147 139
315 312 313 322 328 328 325 317 319 321 314 308 304 303 303 301 299 296 291 285 278 288 303 295 266 222 187 175 265 4 19 99 121 126 131 148 146 147
311 313 321 328 329 325 318 321 324 317 310 307 307 306 302 296 297 297 293 277 257 291 325 317 291 210 167 163 149 137 85 56 110 122 123 130 137 152
313 315 325 326 324 320 320 319 314 308 310 307 306 302 299 297 298 299 300 295 274 284 339 4 13 48 86 94 132 122 114 115 106 111 104 89 95 120
325 322 318 320 319 318 317 316 313 312 311 308 306 305 303 303 303 302 292 285 273 308 347 3 33 51 52 61 89 92 91 81 94 100 104 96 85 105
332 324 321 319 319 320 319 317 314 312 311 310 307 304 305 307 307 306 298 295 353 56 29 8 360 10 50 47 46 74 69 76 90 97 99 109 115 107
329 320 319 320 318 316 314 312 311 310 310 309 307 306 306 309 310 310 314 16 67 61 39 21 11 8 73 74 33 36 82 110 109 94 86 100 134 150
320 318 317 316 315 314 312 310 309 311 311 311 309 308 312 315 318 325 357 59 71 60 49 35 27 22 53 100 109 61 61 101 109 111 98 76 79 115
319 317 316 314 312 311 309 309 309 311 312 313 311 315 323 327 336 359 27 60 57 45 44 32 16 19 15 47 82 72 42 60 103 118 119 114 118 134
318 317 315 311 310 309 309 310 311 312 314 314 316 325 335 344 359 15 23 27 32 39 42 14 353 1 30 67 82 87 80 55 87 131 126 128 143 165
316 315 313 310 309 309 310 312 313 312 313 315 321 333 344 353 2 14 21 28 34 36 30 14 10 35 57 74 89 89 90 92 95 105 121 172 123 75